Year,Month,Day,Hour,Minute,Value (Times are PST for temperature in C)
2010,10,22,00,00,10.10
2010,10,22,00,01,10.10
2010,10,22,00,02,10.10
2010,10,22,00,03,10.00
2010,10,22,00,04,10.00
2010,10,22,00,05,10.00
2010,10,22,00,06,10.00
2010,10,22,00,07,10.00
2010,10,22,00,08,10.00
2010,10,22,00,09,10.00
2010,10,22,00,10,10.00
2010,10,22,00,11,10.00
2010,10,22,00,12,10.00
2010,10,22,00,13,10.00
2010,10,22,00,14,10.00
2010,10,22,00,15,10.00
2010,10,22,00,16,10.00
2010,10,22,00,17,9.90
2010,10,22,00,18,10.00
2010,10,22,00,19,9.90
2010,10,22,00,20,9.90
2010,10,22,00,21,9.90
2010,10,22,00,22,9.90
2010,10,22,00,23,9.90
2010,10,22,00,24,9.90
2010,10,22,00,25,9.90
2010,10,22,00,26,9.90
2010,10,22,00,27,9.90
2010,10,22,00,28,9.90
2010,10,22,00,29,9.90
2010,10,22,00,30,9.90
2010,10,22,00,31,9.90
2010,10,22,00,32,9.90
2010,10,22,00,33,9.90
2010,10,22,00,34,9.90
2010,10,22,00,35,9.80
2010,10,22,00,36,9.80
2010,10,22,00,37,9.80
2010,10,22,00,38,9.80
2010,10,22,00,39,9.80
2010,10,22,00,40,9.80
2010,10,22,00,41,9.80
2010,10,22,00,42,9.80
2010,10,22,00,43,9.80
2010,10,22,00,44,9.80
2010,10,22,00,45,9.80
2010,10,22,00,46,9.80
2010,10,22,00,47,9.80
2010,10,22,00,48,9.70
2010,10,22,00,49,9.70
2010,10,22,00,50,9.70
2010,10,22,00,51,9.70
2010,10,22,00,52,9.70
2010,10,22,00,53,9.70
2010,10,22,00,54,9.70
2010,10,22,00,55,9.70
2010,10,22,00,56,9.70
2010,10,22,00,57,9.70
2010,10,22,00,58,9.70
2010,10,22,00,59,9.70
2010,10,22,01,00,9.70
2010,10,22,01,01,9.70
2010,10,22,01,02,9.70
2010,10,22,01,03,9.70
2010,10,22,01,04,9.70
2010,10,22,01,05,9.70
2010,10,22,01,06,9.70
2010,10,22,01,07,9.70
2010,10,22,01,08,9.70
2010,10,22,01,09,9.70
2010,10,22,01,10,9.70
2010,10,22,01,11,9.70
2010,10,22,01,12,9.70
2010,10,22,01,13,9.70
2010,10,22,01,14,9.70
2010,10,22,01,15,9.80
2010,10,22,01,16,9.80
2010,10,22,01,17,9.80
2010,10,22,01,18,9.80
2010,10,22,01,19,9.80
2010,10,22,01,20,9.80
2010,10,22,01,21,9.70
2010,10,22,01,22,9.70
2010,10,22,01,23,9.70
2010,10,22,01,24,9.70
2010,10,22,01,25,9.70
2010,10,22,01,26,9.70
2010,10,22,01,27,9.70
2010,10,22,01,28,9.70
2010,10,22,01,29,9.70
2010,10,22,01,30,9.70
2010,10,22,01,31,9.70
2010,10,22,01,32,9.70
2010,10,22,01,33,9.70
2010,10,22,01,34,9.60
2010,10,22,01,35,9.70
2010,10,22,01,36,9.70
2010,10,22,01,37,9.60
2010,10,22,01,38,9.60
2010,10,22,01,39,9.60
2010,10,22,01,40,9.60
2010,10,22,01,41,9.60
2010,10,22,01,42,9.60
2010,10,22,01,43,9.60
2010,10,22,01,44,9.60
2010,10,22,01,45,9.60
2010,10,22,01,46,9.60
2010,10,22,01,47,9.60
2010,10,22,01,48,9.60
2010,10,22,01,49,9.50
2010,10,22,01,50,9.50
2010,10,22,01,51,9.50
2010,10,22,01,52,9.50
2010,10,22,01,53,9.50
2010,10,22,01,54,9.50
2010,10,22,01,55,9.60
2010,10,22,01,56,9.60
2010,10,22,01,57,9.60
2010,10,22,01,58,9.60
2010,10,22,01,59,9.60
2010,10,22,02,00,9.60
2010,10,22,02,01,9.60
2010,10,22,02,02,9.60
2010,10,22,02,03,9.60
2010,10,22,02,04,9.50
2010,10,22,02,05,9.50
2010,10,22,02,06,9.50
2010,10,22,02,07,9.50
2010,10,22,02,08,9.50
2010,10,22,02,09,9.50
2010,10,22,02,10,9.50
2010,10,22,02,11,9.40
2010,10,22,02,12,9.40
2010,10,22,02,13,9.40
2010,10,22,02,14,9.40
2010,10,22,02,15,9.40
2010,10,22,02,16,9.40
2010,10,22,02,17,9.40
2010,10,22,02,18,9.40
2010,10,22,02,19,9.50
2010,10,22,02,20,9.50
2010,10,22,02,21,9.50
2010,10,22,02,22,9.60
2010,10,22,02,23,9.60
2010,10,22,02,24,9.60
2010,10,22,02,25,9.60
2010,10,22,02,26,9.60
2010,10,22,02,27,9.60
2010,10,22,02,28,9.70
2010,10,22,02,29,9.70
2010,10,22,02,30,9.70
2010,10,22,02,31,9.70
2010,10,22,02,32,9.70
2010,10,22,02,33,9.60
2010,10,22,02,34,9.60
2010,10,22,02,35,9.60
2010,10,22,02,36,9.60
2010,10,22,02,37,9.70
2010,10,22,02,38,9.70
2010,10,22,02,39,9.70
2010,10,22,02,40,9.70
2010,10,22,02,41,9.70
2010,10,22,02,42,9.70
2010,10,22,02,43,9.70
2010,10,22,02,44,9.70
2010,10,22,02,45,9.70
2010,10,22,02,46,9.70
2010,10,22,02,47,9.60
2010,10,22,02,48,9.60
2010,10,22,02,49,9.60
2010,10,22,02,50,9.60
2010,10,22,02,51,9.60
2010,10,22,02,52,9.60
2010,10,22,02,53,9.60
2010,10,22,02,54,9.60
2010,10,22,02,55,9.60
2010,10,22,02,56,9.60
2010,10,22,02,57,9.60
2010,10,22,02,58,9.60
2010,10,22,02,59,9.60
2010,10,22,03,00,9.60
2010,10,22,03,01,9.60
2010,10,22,03,02,9.60
2010,10,22,03,03,9.60
2010,10,22,03,04,9.50
2010,10,22,03,05,9.30
2010,10,22,03,06,9.30
2010,10,22,03,07,9.30
2010,10,22,03,08,9.40
2010,10,22,03,09,9.40
2010,10,22,03,10,9.40
2010,10,22,03,11,9.40
2010,10,22,03,12,9.40
2010,10,22,03,13,9.40
2010,10,22,03,14,9.40
2010,10,22,03,15,9.40
2010,10,22,03,16,9.40
2010,10,22,03,17,9.40
2010,10,22,03,18,9.40
2010,10,22,03,19,9.40
2010,10,22,03,20,9.40
2010,10,22,03,21,9.30
2010,10,22,03,22,9.30
2010,10,22,03,23,9.30
2010,10,22,03,24,9.30
2010,10,22,03,25,9.30
2010,10,22,03,26,9.30
2010,10,22,03,27,9.30
2010,10,22,03,28,9.20
2010,10,22,03,29,9.20
2010,10,22,03,30,9.20
2010,10,22,03,31,9.20
2010,10,22,03,32,9.10
2010,10,22,03,33,9.00
2010,10,22,03,34,8.90
2010,10,22,03,35,8.80
2010,10,22,03,36,8.80
2010,10,22,03,37,8.70
2010,10,22,03,38,8.70
2010,10,22,03,39,8.70
2010,10,22,03,40,8.70
2010,10,22,03,41,8.60
2010,10,22,03,42,8.70
2010,10,22,03,43,8.70
2010,10,22,03,44,8.70
2010,10,22,03,45,8.70
2010,10,22,03,46,8.70
2010,10,22,03,47,8.80
2010,10,22,03,48,8.80
2010,10,22,03,49,8.80
2010,10,22,03,50,8.80
2010,10,22,03,51,8.80
2010,10,22,03,52,8.80
2010,10,22,03,53,8.70
2010,10,22,03,54,8.70
2010,10,22,03,55,8.70
2010,10,22,03,56,8.70
2010,10,22,03,57,8.60
2010,10,22,03,58,8.60
2010,10,22,03,59,8.60
2010,10,22,04,00,8.60
2010,10,22,04,01,8.60
2010,10,22,04,02,8.50
2010,10,22,04,03,8.50
2010,10,22,04,04,8.50
2010,10,22,04,05,8.50
2010,10,22,04,06,8.50
2010,10,22,04,07,8.50
2010,10,22,04,08,8.60
2010,10,22,04,09,8.60
2010,10,22,04,10,8.60
2010,10,22,04,11,8.60
2010,10,22,04,12,8.60
2010,10,22,04,13,8.60
2010,10,22,04,14,8.60
2010,10,22,04,15,8.60
2010,10,22,04,16,8.60
2010,10,22,04,17,8.60
2010,10,22,04,18,8.60
2010,10,22,04,19,8.50
2010,10,22,04,20,8.50
2010,10,22,04,21,8.40
2010,10,22,04,22,8.40
2010,10,22,04,23,8.40
2010,10,22,04,24,8.30
2010,10,22,04,25,8.30
2010,10,22,04,26,8.30
2010,10,22,04,27,8.30
2010,10,22,04,28,8.30
2010,10,22,04,29,8.30
2010,10,22,04,30,8.30
2010,10,22,04,31,8.30
2010,10,22,04,32,8.30
2010,10,22,04,33,8.20
2010,10,22,04,34,8.20
2010,10,22,04,35,8.10
2010,10,22,04,36,8.10
2010,10,22,04,37,8.10
2010,10,22,04,38,8.10
2010,10,22,04,39,8.10
2010,10,22,04,40,8.10
2010,10,22,04,41,8.10
2010,10,22,04,42,8.20
2010,10,22,04,43,8.20
2010,10,22,04,44,8.30
2010,10,22,04,45,8.40
2010,10,22,04,46,8.40
2010,10,22,04,47,8.40
2010,10,22,04,48,8.40
2010,10,22,04,49,8.40
2010,10,22,04,50,8.40
2010,10,22,04,51,8.40
2010,10,22,04,52,8.40
2010,10,22,04,53,8.50
2010,10,22,04,54,8.50
2010,10,22,04,55,8.50
2010,10,22,04,56,8.50
2010,10,22,04,57,8.60
2010,10,22,04,58,8.70
2010,10,22,04,59,8.80
2010,10,22,05,00,8.80
2010,10,22,05,01,8.90
2010,10,22,05,02,8.90
2010,10,22,05,03,8.90
2010,10,22,05,04,8.90
2010,10,22,05,05,8.90
2010,10,22,05,06,9.00
2010,10,22,05,07,9.00
2010,10,22,05,08,9.10
2010,10,22,05,09,9.10
2010,10,22,05,10,9.10
2010,10,22,05,11,9.10
2010,10,22,05,12,9.10
2010,10,22,05,13,9.10
2010,10,22,05,14,9.10
2010,10,22,05,15,9.20
2010,10,22,05,16,9.20
2010,10,22,05,17,9.20
2010,10,22,05,18,9.20
2010,10,22,05,19,9.30
2010,10,22,05,20,9.30
2010,10,22,05,21,9.30
2010,10,22,05,22,9.30
2010,10,22,05,23,9.30
2010,10,22,05,24,9.30
2010,10,22,05,25,9.30
2010,10,22,05,26,9.30
2010,10,22,05,27,9.20
2010,10,22,05,28,9.20
2010,10,22,05,29,9.20
2010,10,22,05,30,9.20
2010,10,22,05,31,9.20
2010,10,22,05,32,9.30
2010,10,22,05,33,9.40
2010,10,22,05,34,9.50
2010,10,22,05,35,9.50
2010,10,22,05,36,9.60
2010,10,22,05,37,9.60
2010,10,22,05,38,9.60
2010,10,22,05,39,9.60
2010,10,22,05,40,9.50
2010,10,22,05,41,9.50
2010,10,22,05,42,9.50
2010,10,22,05,43,9.50
2010,10,22,05,44,9.40
2010,10,22,05,45,9.40
2010,10,22,05,46,9.40
2010,10,22,05,47,9.40
2010,10,22,05,48,9.40
2010,10,22,05,49,9.40
2010,10,22,05,50,9.40
2010,10,22,05,51,9.40
2010,10,22,05,52,9.40
2010,10,22,05,53,9.40
2010,10,22,05,54,9.30
2010,10,22,05,55,9.20
2010,10,22,05,56,9.20
2010,10,22,05,57,9.20
2010,10,22,05,58,9.10
2010,10,22,05,59,9.10
2010,10,22,06,00,9.10
2010,10,22,06,01,9.10
2010,10,22,06,31,9.00
2010,10,22,06,32,9.00
2010,10,22,06,33,9.00
2010,10,22,06,34,8.90
2010,10,22,14,24,14.20
2010,10,22,14,25,14.20
2010,10,22,14,26,14.10
2010,10,22,14,27,14.10
2010,10,22,14,28,14.10
2010,10,22,14,29,14.10
2010,10,22,14,30,14.10
2010,10,22,14,31,14.10
2010,10,22,14,32,14.10
2010,10,22,14,33,14.20
2010,10,22,14,34,14.20
2010,10,22,14,35,14.20
2010,10,22,14,36,14.30
2010,10,22,14,37,14.30
2010,10,22,14,38,14.30
2010,10,22,14,39,14.30
2010,10,22,14,40,14.40
2010,10,22,14,41,14.50
2010,10,22,14,42,14.50
2010,10,22,14,43,14.60
2010,10,22,14,44,14.60
2010,10,22,14,45,14.50
2010,10,22,14,46,14.40
2010,10,22,14,47,14.40
2010,10,22,14,48,14.40
2010,10,22,14,49,14.30
2010,10,22,14,50,14.30
2010,10,22,14,51,14.20
2010,10,22,14,52,14.20
2010,10,22,14,53,14.20
2010,10,22,14,54,14.20
2010,10,22,14,55,14.10
2010,10,22,14,56,14.10
2010,10,22,14,57,14.00
2010,10,22,14,58,13.90
2010,10,22,14,59,13.90
2010,10,22,15,00,13.90
2010,10,22,15,01,13.90
2010,10,22,15,02,13.90
2010,10,22,15,03,13.90
2010,10,22,15,04,13.90
2010,10,22,15,05,13.90
2010,10,22,15,06,13.90
2010,10,22,15,07,13.90
2010,10,22,15,08,13.90
2010,10,22,15,09,13.90
2010,10,22,15,10,13.90
2010,10,22,15,11,13.90
2010,10,22,15,12,13.90
2010,10,22,15,13,13.90
2010,10,22,15,14,13.90
2010,10,22,15,15,13.90
2010,10,22,15,16,13.90
2010,10,22,15,17,13.90
2010,10,22,15,18,13.90
2010,10,22,15,19,14.00
2010,10,22,15,20,14.00
2010,10,22,15,21,14.00
2010,10,22,15,22,14.10
2010,10,22,15,23,14.10
2010,10,22,15,24,14.20
2010,10,22,15,25,14.30
2010,10,22,15,26,14.30
2010,10,22,15,27,14.40
2010,10,22,15,28,14.50
2010,10,22,15,29,14.60
2010,10,22,15,30,14.60
2010,10,22,15,31,14.60
2010,10,22,15,32,14.70
2010,10,22,15,33,14.70
2010,10,22,15,34,14.70
2010,10,22,15,35,14.70
2010,10,22,15,36,14.70
2010,10,22,15,37,14.70
2010,10,22,15,38,14.70
2010,10,22,15,39,14.70
2010,10,22,15,40,14.70
2010,10,22,15,41,14.60
2010,10,22,15,42,14.60
2010,10,22,15,43,14.50
2010,10,22,15,44,14.50
2010,10,22,15,45,14.40
2010,10,22,15,46,14.30
2010,10,22,15,47,14.30
2010,10,22,15,48,14.30
2010,10,22,15,49,14.20
2010,10,22,15,50,14.20
2010,10,22,15,51,14.20
2010,10,22,15,52,14.10
2010,10,22,15,53,14.10
2010,10,22,15,54,14.10
2010,10,22,15,55,14.00
2010,10,22,15,56,14.00
2010,10,22,15,57,14.00
2010,10,22,15,58,13.90
2010,10,22,15,59,13.90
2010,10,22,16,00,13.90
2010,10,22,16,01,13.80
2010,10,22,16,02,13.80
2010,10,22,16,03,13.80
2010,10,22,16,04,13.80
2010,10,22,16,05,13.70
2010,10,22,16,06,13.70
2010,10,22,16,07,13.70
2010,10,22,16,08,13.70
2010,10,22,16,09,13.60
2010,10,22,16,10,13.60
2010,10,22,16,11,13.60
2010,10,22,16,12,13.60
2010,10,22,16,13,13.60
2010,10,22,16,14,13.60
2010,10,22,16,15,13.60
2010,10,22,16,16,13.60
2010,10,22,16,17,13.50
2010,10,22,16,18,13.50
2010,10,22,16,19,13.50
2010,10,22,16,20,13.50
2010,10,22,16,21,13.50
2010,10,22,16,22,13.50
2010,10,22,16,23,13.50
2010,10,22,16,24,13.40
2010,10,22,16,25,13.40
2010,10,22,16,26,13.40
2010,10,22,16,27,13.40
2010,10,22,16,28,13.40
2010,10,22,16,29,13.40
2010,10,22,16,30,13.40
2010,10,22,16,31,13.40
2010,10,22,16,32,13.40
2010,10,22,16,33,13.50
2010,10,22,16,34,13.50
2010,10,22,16,35,13.50
2010,10,22,16,36,13.50
2010,10,22,16,37,13.60
2010,10,22,16,38,13.60
2010,10,22,16,39,13.60
2010,10,22,16,40,13.60
2010,10,22,16,41,13.70
2010,10,22,16,42,13.70
2010,10,22,16,43,13.70
2010,10,22,16,44,13.70
2010,10,22,16,45,13.70
2010,10,22,16,46,13.70
2010,10,22,16,47,13.70
2010,10,22,16,48,13.60
2010,10,22,16,49,13.60
2010,10,22,16,50,13.50
2010,10,22,16,51,13.40
2010,10,22,16,52,13.40
2010,10,22,16,53,13.30
2010,10,22,16,54,13.30
2010,10,22,16,55,13.20
2010,10,22,16,56,13.20
2010,10,22,16,57,13.10
2010,10,22,16,58,13.10
2010,10,22,16,59,13.10
2010,10,22,17,00,13.10
2010,10,22,17,01,13.00
2010,10,22,17,02,13.00
2010,10,22,17,03,13.00
2010,10,22,17,04,13.00
2010,10,22,17,05,13.00
2010,10,22,17,06,13.00
2010,10,22,17,07,13.00
2010,10,22,17,08,13.00
2010,10,22,17,09,13.00
2010,10,22,17,10,13.00
2010,10,22,17,11,12.90
2010,10,22,17,12,12.90
2010,10,22,17,13,12.90
2010,10,22,17,14,12.90
2010,10,22,17,15,12.90
2010,10,22,17,16,12.90
2010,10,22,17,17,12.80
2010,10,22,17,18,12.80
2010,10,22,17,19,12.80
2010,10,22,17,20,12.80
2010,10,22,17,21,12.80
2010,10,22,17,22,12.70
2010,10,22,17,23,12.70
2010,10,22,17,24,12.70
2010,10,22,17,25,12.70
2010,10,22,17,26,12.70
2010,10,22,17,27,12.70
2010,10,22,17,28,12.60
2010,10,22,17,29,12.60
2010,10,22,17,30,12.60
2010,10,22,17,31,12.60
2010,10,22,17,32,12.60
2010,10,22,17,33,12.60
2010,10,22,17,34,12.60
2010,10,22,17,35,12.60
2010,10,22,17,36,12.60
2010,10,22,17,37,12.60
2010,10,22,17,38,12.50
2010,10,22,17,39,12.50
2010,10,22,17,40,12.50
2010,10,22,17,41,12.50
2010,10,22,17,42,12.50
2010,10,22,17,43,12.50
2010,10,22,17,44,12.50
2010,10,22,17,45,12.50
2010,10,22,17,46,12.50
2010,10,22,17,47,12.40
2010,10,22,17,48,12.40
2010,10,22,17,49,12.40
2010,10,22,17,50,12.40
2010,10,22,17,51,12.40
2010,10,22,17,52,12.40
2010,10,22,17,53,12.40
2010,10,22,17,54,12.40
2010,10,22,17,55,12.40
2010,10,22,17,56,12.40
2010,10,22,17,57,12.30
2010,10,22,17,58,12.30
2010,10,22,17,59,12.30
2010,10,22,18,00,12.30
2010,10,22,18,01,12.30
2010,10,22,18,02,12.30
2010,10,22,18,03,12.30
2010,10,22,18,04,12.30
2010,10,22,18,05,12.30
2010,10,22,18,06,12.30
2010,10,22,18,07,12.20
2010,10,22,18,08,12.20
2010,10,22,18,09,12.20
2010,10,22,18,10,12.20
2010,10,22,18,11,12.20
2010,10,22,18,12,12.20
2010,10,22,18,13,12.20
2010,10,22,18,14,12.20
2010,10,22,18,15,12.10
2010,10,22,18,16,12.10
2010,10,22,18,17,12.10
2010,10,22,18,18,12.00
2010,10,22,18,19,12.00
2010,10,22,18,20,11.90
2010,10,22,18,21,11.90
2010,10,22,18,22,11.80
2010,10,22,18,23,11.80
2010,10,22,18,24,11.80
2010,10,22,18,25,11.70
2010,10,22,18,26,11.70
2010,10,22,18,27,11.70
2010,10,22,18,28,11.70
2010,10,22,18,29,11.70
2010,10,22,18,30,11.60
2010,10,22,18,31,11.60
2010,10,22,18,32,11.60
2010,10,22,18,33,11.60
2010,10,22,18,34,11.60
2010,10,22,18,35,11.60
2010,10,22,18,36,11.60
2010,10,22,18,37,11.50
2010,10,22,18,38,11.50
2010,10,22,18,39,11.50
2010,10,22,18,40,11.40
2010,10,22,18,41,11.40
2010,10,22,18,42,11.40
2010,10,22,18,43,11.40
2010,10,22,18,44,11.40
2010,10,22,18,45,11.40
2010,10,22,18,46,11.40
2010,10,22,18,47,11.40
2010,10,22,18,48,11.40
2010,10,22,18,49,11.40
2010,10,22,18,50,11.40
2010,10,22,18,51,11.40
2010,10,22,18,52,11.40
2010,10,22,18,53,11.40
2010,10,22,18,54,11.40
2010,10,22,18,55,11.40
2010,10,22,18,56,11.40
2010,10,22,18,57,11.30
2010,10,22,18,58,11.30
2010,10,22,18,59,11.30
2010,10,22,19,00,11.30
2010,10,22,19,01,11.30
2010,10,22,19,02,11.30
2010,10,22,19,03,11.30
2010,10,22,19,04,11.30
2010,10,22,19,05,11.30
2010,10,22,19,06,11.30
2010,10,22,19,07,11.30
2010,10,22,19,08,11.30
2010,10,22,19,09,11.30
2010,10,22,19,10,11.30
2010,10,22,19,11,11.30
2010,10,22,19,12,11.30
2010,10,22,19,13,11.30
2010,10,22,19,14,11.30
2010,10,22,19,15,11.30
2010,10,22,19,16,11.30
2010,10,22,19,17,11.30
2010,10,22,19,18,11.30
2010,10,22,19,19,11.30
2010,10,22,19,20,11.20
2010,10,22,19,21,11.20
2010,10,22,19,22,11.20
2010,10,22,19,23,11.20
2010,10,22,19,24,11.20
2010,10,22,19,25,11.20
2010,10,22,19,26,11.20
2010,10,22,19,27,11.20
2010,10,22,19,28,11.20
2010,10,22,19,29,11.20
2010,10,22,19,30,11.20
2010,10,22,19,31,11.20
2010,10,22,19,32,11.20
2010,10,22,19,33,11.20
2010,10,22,19,34,11.20
2010,10,22,19,35,11.10
2010,10,22,19,36,11.10
2010,10,22,19,37,11.10
2010,10,22,19,38,11.10
2010,10,22,19,39,11.10
2010,10,22,19,40,11.10
2010,10,22,19,41,11.10
2010,10,22,19,42,11.10
2010,10,22,19,43,11.10
2010,10,22,19,44,11.10
2010,10,22,19,45,11.10
2010,10,22,19,46,11.10
2010,10,22,19,47,11.10
2010,10,22,19,48,11.10
2010,10,22,19,49,11.10
2010,10,22,19,50,11.10
2010,10,22,19,51,11.10
2010,10,22,19,52,11.10
2010,10,22,19,53,11.10
2010,10,22,19,54,11.10
2010,10,22,19,55,11.10
2010,10,22,19,56,11.10
2010,10,22,19,57,11.10
2010,10,22,19,58,11.10
2010,10,22,19,59,11.10
2010,10,22,20,00,11.10
2010,10,22,20,01,11.00
2010,10,22,20,02,11.00
2010,10,22,20,03,11.00
2010,10,22,20,04,11.00
2010,10,22,20,05,11.00
2010,10,22,20,06,11.00
2010,10,22,20,07,11.00
2010,10,22,20,08,11.00
2010,10,22,20,09,11.00
2010,10,22,20,10,11.00
2010,10,22,20,11,11.00
2010,10,22,20,12,11.00
2010,10,22,20,13,11.00
2010,10,22,20,14,11.00
2010,10,22,20,15,11.00
2010,10,22,20,16,11.00
2010,10,22,20,17,11.00
2010,10,22,20,18,11.00
2010,10,22,20,19,11.00
2010,10,22,20,20,10.90
2010,10,22,20,21,10.90
2010,10,22,20,22,10.90
2010,10,22,20,23,10.90
2010,10,22,20,24,10.90
2010,10,22,20,25,10.90
2010,10,22,20,26,10.90
2010,10,22,20,27,10.90
2010,10,22,20,28,10.90
2010,10,22,20,29,10.90
2010,10,22,20,30,10.90
2010,10,22,20,31,10.90
2010,10,22,20,32,10.90
2010,10,22,20,33,10.90
2010,10,22,20,34,10.90
2010,10,22,20,35,10.90
2010,10,22,20,36,10.90
2010,10,22,20,37,10.90
2010,10,22,20,38,10.90
2010,10,22,20,39,10.90
2010,10,22,20,40,10.90
2010,10,22,20,41,10.90
2010,10,22,20,42,10.90
2010,10,22,20,43,10.90
2010,10,22,20,44,10.90
2010,10,22,20,45,10.90
2010,10,22,20,46,10.90
2010,10,22,20,47,10.90
2010,10,22,20,48,10.90
2010,10,22,20,49,10.90
2010,10,22,20,50,10.90
2010,10,22,20,51,10.80
2010,10,22,20,52,10.80
2010,10,22,20,53,10.80
2010,10,22,20,54,10.80
2010,10,22,20,55,10.80
2010,10,22,20,56,10.80
2010,10,22,20,57,10.80
2010,10,22,20,58,10.80
2010,10,22,20,59,10.80
2010,10,22,21,00,10.80
2010,10,22,21,01,10.80
2010,10,22,21,02,10.80
2010,10,22,21,03,10.80
2010,10,22,21,04,10.80
2010,10,22,21,05,10.80
2010,10,22,21,06,10.80
2010,10,22,21,07,10.80
2010,10,22,21,08,10.80
2010,10,22,21,09,10.80
2010,10,22,21,10,10.80
2010,10,22,21,11,10.80
2010,10,22,21,12,10.80
2010,10,22,21,13,10.80
2010,10,22,21,14,10.80
2010,10,22,21,15,10.80
2010,10,22,21,16,10.80
2010,10,22,21,17,10.70
2010,10,22,21,18,10.70
2010,10,22,21,19,10.70
2010,10,22,21,20,10.70
2010,10,22,21,21,10.70
2010,10,22,21,22,10.70
2010,10,22,21,23,10.70
2010,10,22,21,24,10.70
2010,10,22,21,25,10.70
2010,10,22,21,26,10.70
2010,10,22,21,27,10.70
2010,10,22,21,28,10.70
2010,10,22,21,29,10.70
2010,10,22,21,30,10.70
2010,10,22,21,31,10.70
2010,10,22,21,32,10.70
2010,10,22,21,33,10.70
2010,10,22,21,34,10.70
2010,10,22,21,35,10.70
2010,10,22,21,36,10.70
2010,10,22,21,37,10.70
2010,10,22,21,38,10.70
2010,10,22,21,39,10.70
2010,10,22,21,40,10.70
2010,10,22,21,41,10.70
2010,10,22,21,42,10.70
2010,10,22,21,43,10.70
2010,10,22,21,44,10.70
2010,10,22,21,45,10.70
2010,10,22,21,46,10.70
2010,10,22,21,47,10.70
2010,10,22,21,48,10.70
2010,10,22,21,49,10.70
2010,10,22,21,50,10.70
2010,10,22,21,51,10.70
2010,10,22,21,52,10.70
2010,10,22,21,53,10.70
2010,10,22,21,54,10.70
2010,10,22,21,55,10.70
2010,10,22,21,56,10.70
2010,10,22,21,57,10.70
2010,10,22,21,58,10.70
2010,10,22,21,59,10.70
2010,10,22,22,00,10.70
2010,10,22,22,01,10.70
2010,10,22,22,02,10.70
2010,10,22,22,03,10.70
2010,10,22,22,04,10.70
2010,10,22,22,05,10.70
2010,10,22,22,06,10.60
2010,10,22,22,07,10.60
2010,10,22,22,08,10.60
2010,10,22,22,09,10.60
2010,10,22,22,10,10.60
2010,10,22,22,11,10.60
2010,10,22,22,12,10.60
2010,10,22,22,13,10.60
2010,10,22,22,14,10.60
2010,10,22,22,15,10.60
2010,10,22,22,16,10.60
2010,10,22,22,17,10.60
2010,10,22,22,18,10.60
2010,10,22,22,19,10.60
2010,10,22,22,20,10.50
2010,10,22,22,21,10.50
2010,10,22,22,22,10.50
2010,10,22,22,23,10.50
2010,10,22,22,24,10.40
2010,10,22,22,25,10.40
2010,10,22,22,26,10.40
2010,10,22,22,27,10.40
2010,10,22,22,28,10.30
2010,10,22,22,29,10.30
2010,10,22,22,30,10.30
2010,10,22,22,31,10.30
2010,10,22,22,32,10.30
2010,10,22,22,33,10.30
2010,10,22,22,34,10.30
2010,10,22,22,35,10.20
2010,10,22,22,36,10.20
2010,10,22,22,37,10.20
2010,10,22,22,38,10.20
2010,10,22,22,39,10.20
2010,10,22,22,40,10.20
2010,10,22,22,41,10.20
2010,10,22,22,42,10.20
2010,10,22,22,43,10.20
2010,10,22,22,44,10.20
2010,10,22,22,45,10.20
2010,10,22,22,46,10.20
2010,10,22,22,47,10.20
2010,10,22,22,48,10.20
2010,10,22,22,49,10.20
2010,10,22,22,50,10.20
2010,10,22,22,51,10.20
2010,10,22,22,52,10.20
2010,10,22,22,53,10.20
2010,10,22,22,54,10.20
2010,10,22,22,55,10.20
2010,10,22,22,56,10.20
2010,10,22,22,57,10.20
2010,10,22,22,58,10.20
2010,10,22,22,59,10.20
2010,10,22,23,00,10.20
2010,10,22,23,01,10.20
2010,10,22,23,02,10.20
2010,10,22,23,03,10.20
2010,10,22,23,04,10.20
2010,10,22,23,05,10.20
2010,10,22,23,06,10.20
2010,10,22,23,07,10.20
2010,10,22,23,08,10.10
2010,10,22,23,09,10.10
2010,10,22,23,10,10.10
2010,10,22,23,11,10.10
2010,10,22,23,12,10.10
2010,10,22,23,13,10.10
2010,10,22,23,14,10.10
2010,10,22,23,15,10.10
2010,10,22,23,16,10.10
2010,10,22,23,17,10.10
2010,10,22,23,18,10.10
2010,10,22,23,19,10.10
2010,10,22,23,20,10.10
2010,10,22,23,21,10.10
2010,10,22,23,22,10.10
2010,10,22,23,23,10.10
2010,10,22,23,24,10.10
2010,10,22,23,25,10.10
2010,10,22,23,26,10.10
2010,10,22,23,27,10.10
2010,10,22,23,28,10.10
2010,10,22,23,29,10.10
2010,10,22,23,30,10.10
2010,10,22,23,31,10.20
2010,10,22,23,32,10.20
2010,10,22,23,33,10.20
2010,10,22,23,34,10.20
2010,10,22,23,35,10.20
2010,10,22,23,36,10.20
2010,10,22,23,37,10.20
2010,10,22,23,38,10.20
2010,10,22,23,39,10.20
2010,10,22,23,40,10.20
2010,10,22,23,41,10.30
2010,10,22,23,42,10.30
2010,10,22,23,43,10.30
2010,10,22,23,44,10.30
2010,10,22,23,45,10.30
2010,10,22,23,46,10.30
2010,10,22,23,47,10.30
2010,10,22,23,48,10.30
2010,10,22,23,49,10.30
2010,10,22,23,50,10.30
2010,10,22,23,51,10.30
2010,10,22,23,52,10.30
2010,10,22,23,53,10.30
2010,10,22,23,54,10.30
2010,10,22,23,55,10.30
2010,10,22,23,56,10.30
2010,10,22,23,57,10.30
2010,10,22,23,58,10.30
2010,10,22,23,59,10.30
